Other Public Products
Issued by NWS Charleston, SC

Current Version | Previous Version | Graphics & Text | Print | Product List | Glossary On
Versions: 1 2 3 4 5 6 7 8 9 10 11 12 13 14 15 16 17 18 19 20 21 22 23 24 25 26 27 28 29 30 31 32 33 34 35 36 37 38 39 40 41 42 43 44 45 46 47 48 49 50
000
FPUS82 KCHS 101526
OPUCHS

TEST...KCHS/KSAV Gateway Observations...TEST
National Weather Service Charleston SC
1000 AM EST SUN DEC 10 2017

NOTE: "fair" indicates few or no clouds below 12,000 feet with no
significant weather and/or obstructions to visibility.

SCZ050-WAZ558-NCZ071-TXZ119-213-PAZ071-DCZ001-FLZ074-172-MI076-
NYZ176-178-MAZ016-IL014-TNZ027-NJZ106-GAZ044-MD014-101600-

...Gateway Observations for Charleston International...

CITY           SKY/WX    TMP DP  RH WIND       PRES   REMARKS
Chas Airport   SUNNY     41  29  62 NW7       30.28R
Seattle        MOCLDY    39  26  59 NE6       30.44S WCI  35
Charlotte      SUNNY     36  24  62 W7        30.23R WCI  30
Dallas DFW     MOSUNNY   42  30  62 S3        30.38S
Dallas Love    MOSUNNY   42  29  59 CALM      30.41R
Philladelphia  SUNNY     33  23  66 W13       30.00R WCI  24
Wash National  CLOUDY    35  26  69 S7        30.08R WCI  29
Baltimore      MOSUNNY   34  26  72 SW8       30.04R WCI  27
Miami          MOSUNNY   56  34  43 NW14G23   30.29R
Detroit        CLOUDY    27  20  75 SW17      29.95S WCI  14
Newark         MOSUNNY   33  22  63 W10       29.93R WCI  25
Laguardia      MOSUNNY   34  21  59 W14G25    29.92R WCI  25
J F K          MOSUNNY   32  23  69 W17       29.94R WCI  21
Boston Logan   MOSUNNY   34  25  69 W15G25    29.77R WCI  24
Ft. Lauderdale MOSUNNY   54  36  50 NW12G21   30.28R
Chicago O`Hare CLOUDY    27  16  63 SW15      29.89F WCI  15
Chicago Midway CLOUDY    27  17  66 SW13      29.91F WCI  16
Houston Bush   MOSUNNY   47  37  68 CALM      30.45R
Houston Hobby  MOSUNNY   47  37  68 CALM      30.45R
Nashville      SUNNY     32  20  61 S9        30.28S WCI  24
Atlanta        SUNNY     33  23  66 NW8       30.28R WCI  26

$$

GAZ044-118-TXZ119-213-NCZ071-DCZ001-MDZ014-506-PAZ021-071-NJZ106-
NYZ176-178-MAZ106-OHZ011-021-055-MIZ076-KYZ091-ILZ014-INZ047-
MNZ060-ONZ431-101600-

...Gateway Observations for Savannah International...

CITY           SKY/WX    TMP DP  RH WIND       PRES   REMARKS
Savannah Arpt  SUNNY     39  28  64 NW7       30.32R WCI  34
Atlanta        SUNNY     33  23  66 NW8       30.28R WCI  26
Charlotte      SUNNY     36  24  62 W7        30.23R WCI  30
Dallas DFW     MOSUNNY   42  30  62 S3        30.38S
Houston Bush   MOSUNNY   47  37  68 CALM      30.45R
Wash National  CLOUDY    35  26  69 S7        30.08R WCI  29
Wash Dulles    CLOUDY    34  24  67 W6        30.06R WCI  29
Baltimore      MOSUNNY   34  26  72 SW8       30.04R WCI  27
Philadelphia   SUNNY     33  23  66 W13       30.00R WCI  24
Newark         MOSUNNY   33  22  63 W10       29.93R WCI  25
Laguardia      MOSUNNY   34  21  59 W14G25    29.92R WCI  25
J F K          MOSUNNY   32  23  69 W17       29.94R WCI  21
Boston         MOSUNNY   34  25  69 W15G25    29.77R WCI  24
Pittsburg      CLOUDY    30  19  63 W10G21    30.00F WCI  21
Akron          CLOUDY    28  20  71 SW20      29.99S WCI  15
Cleveland      PTSUNNY   29  22  75 SW17G24   30.01S WCI  17
Cincinnati     CLOUDY    25  18  74 SW13      30.12R WCI  14
Columbus       MOSUNNY   27  20  75 SW15G21   30.11R WCI  15
Detroit        CLOUDY    27  20  75 SW17      29.95S WCI  14
Chicago O`Hare CLOUDY    27  16  63 SW15      29.89F WCI  15
Minneapolis    CLOUDY    27  22  81 NW13      29.96R WCI  16
Indianapolis   CLOUDY    26  16  65 SW14      30.07F WCI  14
Toronto Canada FLURRIES  28  16  59 SW16G22   29.83S WCI  17

$$




USA.gov is the U.S. government's official web portal to all federal, state and local government web resources and services.